This is the latest recevied weather packets stored in our database for station/object KT2UU-13. If no packets are shown the sender has not sent any weather packets the latest 10 day(s).
| Time | Temp. | Humidity | Pressure | Rain* | Wind** | Luminosity | Snow |
|---|---|---|---|---|---|---|---|
| 1777582445 | 20.56° C | 54% | 1013.6 hPa | 0 mm | - | - | - |
| 1777582145 | 20.56° C | 51% | 1013.9 hPa | 0 mm | - | - | - |
| 1777581844 | 21.11° C | 53% | 1013.6 hPa | 0 mm | - | - | - |
| 1777581543 | 20.56° C | 53% | 1013.6 hPa | 0 mm | - | - | - |
| 1777581239 | 20° C | 52% | 1013.5 hPa | 0 mm | - | - | - |
| 1777580939 | 20° C | 51% | 1013.7 hPa | 0 mm | - | - | - |
| 1777580633 | 20.56° C | 51% | 1013.8 hPa | 0 mm | - | - | - |
| 1777580329 | 20.56° C | 50% | 1013.6 hPa | 0 mm | - | - | - |
| 1777580026 | 21.11° C | 52% | 1014.2 hPa | 0 mm | - | - | - |
| 1777579722 | 20.56° C | 50% | 1014.2 hPa | 0 mm | - | - | - |
| 1777579415 | 20° C | 52% | 1014.1 hPa | 0 mm | - | - | - |
| 1777579110 | 20.56° C | 51% | 1014.1 hPa | 0 mm | - | - | - |
| 1777578804 | 21.11° C | 55% | 1014.2 hPa | 0 mm | - | - | - |
| 1777578499 | 20.56° C | 55% | 1014.1 hPa | 0 mm | - | - | - |
| 1777578194 | 20.56° C | 55% | 1014.2 hPa | 0 mm | - | - | - |
| 1777577890 | 20.56° C | 54% | 1014.2 hPa | 0 mm | - | - | - |
| 1777577586 | 20.56° C | 55% | 1014.4 hPa | 0 mm | - | - | - |
| 1777577283 | 20.56° C | 55% | 1014.2 hPa | 0 mm | - | - | - |
| 1777576979 | 20.56° C | 53% | 1014.3 hPa | 0 mm | - | - | - |
| 1777576675 | 20.56° C | 55% | 1014.3 hPa | 0 mm | - | - | - |
| 1777576375 | 20° C | 53% | 1014.2 hPa | 0 mm | - | - | - |
| 1777576072 | 20.56° C | 52% | 1014.3 hPa | 0 mm | - | - | - |
| 1777575768 | 20° C | 55% | 1014.2 hPa | 0 mm | - | - | - |
| 1777575464 | 20° C | 54% | 1014.3 hPa | 0 mm | - | - | - |
| 1777575160 | 19.44° C | 54% | 1014.2 hPa | 0 mm | - | - | - |
* Rain latest hour (hover to see other rain measurements)
** Current wind speed in m/s (hover to see current wind gust speed)